Regional Weather Roundup
Issued by NWS Nashville, TN

Home | Current Version | Previous Version | Text Only | Print | Product List | Glossary On
Versions: 1 2 3 4 5 6 7 8 9 10 11 12 13 14 15 16 17 18 19 20 21 22 23 24 25 26 27 28 29 30 31 32 33 34 35 36 37 38 39 40 41 42 43 44 45 46 47 48 49 50
000
ASUS44 KOHX 240810
RWROHX
MIDDLE TENNESSEE HOURLY WEATHER ROUNDUP
NATIONAL WEATHER SERVICE NASHVILLE TN
300 AM CDT SUN MAY 24 2015

NOTE: "FAIR" INDICATES FEW OR NO CLOUDS BELOW 12,000 FEET WITH
NO SIGNIFICANT WEATHER AND/OR OBSTRUCTIONS TO VISIBILITY.

* THESE REPORTS ARE NOT UNDER NWS QUALITY CONTROL AND MAY NOT
  REPORT WEATHER SUCH AS PRECIPITATION AND FOG.


TNZ005>011-023>034-057-059-062>066-078-080-240900
...NORTHERN MIDDLE TENNESSEE...

CITY           SKY/WX    TMP DP  RH WIND       PRES   REMARKS
CASTALIAN SPRG   N/A     55  55 100 W1        30.25R
CLARKSVILLE    CLEAR     60  56  86 SE5       30.20R
CROSSVILLE     PTCLDY    56  49  77 CALM      30.30R
GLADEVILLE*      N/A     63  52  67 CALM      30.19R
JOELTON*         N/A     64  57  77 SE1       30.15R
LIVINGSTON     PTCLDY    68  47  46 S6        30.28
MOUNT JULIET*    N/A     64  54  68 CALM      30.07R
NASHVILLE      PTCLDY    63  54  72 SE5       30.23R
PORTLAND       CLEAR     63  52  67 SE7       30.22R
SMYRNA         CLEAR     57  56  97 CALM      30.24R
SPARTA         CLEAR     54  50  87 CALM      30.26R
$$
TNZ056-058-060-061-075>077-079-093>097-240900
...SOUTHERN MIDDLE TENNESSEE...

CITY           SKY/WX    TMP DP  RH WIND       PRES   REMARKS
COLUMBIA       CLEAR     57  57 100 CALM      30.20S
LEWISBURG      CLEAR     54  52  93 CALM      30.22R
MANCHESTER*      N/A     55  25  30 CALM      30.23R
MCMINNVILLE    CLEAR     55  52  88 N20       30.26R
MOUNT PLEASANT   N/A     64  57  77 CALM      30.14R
SHELBYVILLE    CLEAR     63  54  72 CALM      30.25R
TULLAHOMA      CLEAR     63  48  59 CALM      30.26R
WINCHESTER     CLEAR     66  48  52 S8        30.25R
$$


...KEY TO REMARKS...
VSB - VISIBILITY IN MILES
WCI - WIND CHILL INDEX
HX  - HEAT INDEX




USA.gov is the U.S. government's official web portal to all federal, state and local government web resources and services.